Location: Unspecified
(0.0000°N, 0.0000°E)
Time: 07:20:24
(UTC+00:00)

Tiros 1 - All Passes

Search period start: 19 April 2014 00:00
Search period end: 29 April 2014 00:00
Orbit: 633 x 668 km, 48.4° (Epoch: 18 April)

Date Brightness Start Highest point End Pass type
(mag) Time Alt. Az. Time Alt. Az. Time Alt. Az.
19 Apr - 06:12:29 10° NNW 06:17:08 50° NE 06:21:46 10° SE daylight
19 Apr - 07:57:00 10° WSW 07:59:18 13° SW 08:01:35 10° SSW daylight
19 Apr - 18:26:04 10° SW 18:30:42 87° NW 18:35:21 10° NE visible
20 Apr - 04:59:35 10° NNE 05:02:12 15° NE 05:04:48 10° E visible
20 Apr - 06:39:45 10° NW 06:44:21 46° SW 06:48:57 10° SSE daylight
20 Apr - 17:12:04 10° S 17:15:51 25° SE 17:19:37 10° ENE daylight
20 Apr - 18:54:11 10° WSW 18:57:57 24° NW 19:01:43 10° N visible
21 Apr - 05:24:52 10° NNW 05:29:29 47° NE 05:34:06 10° SE visible
21 Apr - 07:09:04 10° W 07:11:38 14° SW 07:14:12 10° SSW daylight
21 Apr - 17:38:27 10° SW 17:43:05 88° SE 17:47:43 10° NE daylight
22 Apr - 04:12:10 10° NNE 04:14:32 14° NE 04:16:54 10° E visible
22 Apr - 05:52:03 10° NW 05:56:42 49° SW 06:01:21 10° SSE daylight
22 Apr - 16:24:33 10° S 16:28:13 23° SE 16:31:52 10° ENE daylight
22 Apr - 18:06:27 10° WSW 18:10:18 26° NW 18:14:10 10° N daylight
23 Apr - 04:37:16 10° NNW 04:41:50 43° NE 04:46:24 10° ESE visible
23 Apr - 06:21:11 10° W 06:23:59 15° SW 06:26:47 10° SSW daylight
23 Apr - 16:50:49 10° SW 16:55:27 82° SE 17:00:04 10° NE daylight
24 Apr - 03:24:47 10° NNE 03:26:52 13° NE 03:28:57 10° ENE visible
24 Apr - 05:04:21 10° NW 05:09:03 53° SW 05:13:44 10° SSE visible
24 Apr - 15:37:02 10° S 15:40:34 22° SE 15:44:06 10° E daylight
24 Apr - 17:18:43 10° WSW 17:22:40 28° NW 17:26:37 10° N daylight
25 Apr - 03:49:39 10° NNW 03:54:10 41° NE 03:58:41 10° ESE visible
25 Apr - 05:33:18 10° W 05:36:19 16° SW 05:39:20 10° S visible
25 Apr - 16:03:11 10° SW 16:07:48 76° SE 16:12:25 10° NE daylight
26 Apr - 02:37:28 10° NNE 02:39:12 12° NE 02:40:55 10° ENE visible
26 Apr - 04:16:39 10° NW 04:21:23 57° SW 04:26:07 10° SSE visible
26 Apr - 14:49:30 10° S 14:52:55 20° SE 14:56:19 10° E daylight
26 Apr - 16:30:59 10° WSW 16:35:01 30° NW 16:39:02 10° N daylight
27 Apr - 03:02:02 10° NNW 03:06:30 38° NE 03:10:58 10° ESE visible
27 Apr - 04:45:27 10° W 04:48:38 18° SW 04:51:50 10° S visible
27 Apr - 15:15:33 10° SSW 15:20:09 71° SE 15:24:45 10° NE daylight
28 Apr - 01:50:16 10° NE 01:51:31 11° NE 01:52:46 10° ENE night (unlit)
28 Apr - 03:28:57 10° NW 03:33:42 62° SW 03:38:28 10° SSE visible
28 Apr - 14:01:59 10° S 14:05:16 19° SE 14:08:31 10° E daylight
28 Apr - 15:43:15 10° WSW 15:47:22 32° NW 15:51:28 10° NNE daylight
